QFA1743 YPDN-YPPH

Flight info

Callsign QFA1743
Flight time N/A
Altitude 36000
Route DN J151 IRPOM DCT NISAD DCT REBIR DCT WLU Q73 NOMAV Q25 DALWU Q38 PH
Aircraft A319/M-SDE3FGHIRWY/LB1

Departure

Time 2026-04-23 03:56
Airport Darwin International Airport / RAAF Darwin (YPDN)

Arrival

Time N/A
Airport Perth International Airport (YPPH)
Time Latitude Longitude Altitude Speed Heading
2026-04-23 03:17 -12.40914 130.87867 90 ft 0 kts 19°
2026-04-23 03:46 -12.40924 130.87864 91 ft 4 kts 18°
2026-04-23 03:47 -12.40950 130.87856 90 ft 4 kts
2026-04-23 03:47 -12.40976 130.87856 92 ft 4 kts 329°
2026-04-23 03:47 -12.40985 130.87864 92 ft 0 kts 287°
2026-04-23 03:49 -12.40978 130.87840 92 ft 7 kts 285°
2026-04-23 03:50 -12.40967 130.87775 91 ft 11 kts 279°
2026-04-23 03:50 -12.40954 130.87692 91 ft 13 kts 277°
2026-04-23 03:50 -12.40986 130.87612 90 ft 13 kts 223°
2026-04-23 03:50 -12.41069 130.87576 90 ft 13 kts 198°
2026-04-23 03:51 -12.41161 130.87544 90 ft 14 kts 199°
2026-04-23 03:51 -12.41257 130.87510 90 ft 15 kts 199°
2026-04-23 03:51 -12.41359 130.87475 90 ft 16 kts 199°
2026-04-23 03:51 -12.41461 130.87428 90 ft 17 kts 224°
2026-04-23 03:52 -12.41488 130.87316 90 ft 17 kts 281°
2026-04-23 03:52 -12.41451 130.87203 92 ft 17 kts 289°
2026-04-23 03:52 -12.41412 130.87091 91 ft 17 kts 289°
2026-04-23 03:52 -12.41374 130.86977 90 ft 17 kts 289°
2026-04-23 03:53 -12.41336 130.86864 91 ft 17 kts 289°
2026-04-23 03:53 -12.41298 130.86752 91 ft 17 kts 289°
2026-04-23 03:53 -12.41260 130.86640 90 ft 17 kts 289°
2026-04-23 03:53 -12.41219 130.86529 94 ft 17 kts 299°
2026-04-23 03:54 -12.41124 130.86473 93 ft 17 kts 360°
2026-04-23 03:54 -12.41029 130.86501 90 ft 12 kts 21°
2026-04-23 03:54 -12.40961 130.86546 90 ft 13 kts 58°
2026-04-23 03:54 -12.40965 130.86618 92 ft 10 kts 109°
2026-04-23 03:55 -12.41035 130.86820 91 ft 58 kts 109°
2026-04-23 03:55 -12.41228 130.87392 91 ft 112 kts 109°
2026-04-23 03:55 -12.41538 130.88311 91 ft 161 kts 109°
2026-04-23 03:55 -12.41930 130.89448 547 ft 168 kts 109°
2026-04-23 03:56 -12.42310 130.90571 1225 ft 166 kts 108°
2026-04-23 03:56 -12.42677 130.91674 1776 ft 166 kts 108°
2026-04-23 03:56 -12.43065 130.92839 1995 ft 183 kts 109°
2026-04-23 03:56 -12.43504 130.94151 2132 ft 208 kts 109°
2026-04-23 03:57 -12.44000 130.95628 2420 ft 231 kts 108°
2026-04-23 03:57 -12.44538 130.97243 2973 ft 243 kts 108°
2026-04-23 03:57 -12.45083 130.98876 3906 ft 243 kts 108°
2026-04-23 03:57 -12.45633 131.00522 4750 ft 247 kts 108°
2026-04-23 03:58 -12.46274 131.02180 5463 ft 256 kts 120°
2026-04-23 03:58 -12.47611 131.03417 5885 ft 270 kts 152°
2026-04-23 03:58 -12.49473 131.03720 5971 ft 279 kts 184°
2026-04-23 03:58 -12.51355 131.03194 5979 ft 283 kts 199°
2026-04-23 03:59 -12.53150 131.02341 5980 ft 285 kts 204°
2026-04-23 03:59 -12.54919 131.01407 5982 ft 286 kts 204°
2026-04-23 03:59 -12.56692 131.00494 5984 ft 286 kts 203°
2026-04-23 03:59 -12.58335 130.99301 6563 ft 294 kts 222°
2026-04-23 04:00 -12.59582 130.97629 7274 ft 300 kts 240°
2026-04-23 04:00 -12.60290 130.95615 8041 ft 304 kts 257°
2026-04-23 04:00 -12.60750 130.93501 8815 ft 305 kts 257°
2026-04-23 04:00 -12.61202 130.91377 9588 ft 306 kts 257°
2026-04-23 04:01 -12.61650 130.89239 10241 ft 312 kts 258°
2026-04-23 04:01 -12.62120 130.86983 10391 ft 335 kts 258°
2026-04-23 04:01 -12.62620 130.84575 10512 ft 356 kts 258°
2026-04-23 04:01 -12.62951 130.81994 10633 ft 375 kts 264°
2026-04-23 04:02 -12.63205 130.79275 10747 ft 392 kts 264°
2026-04-23 04:02 -12.63474 130.76441 10908 ft 406 kts 264°
2026-04-23 04:02 -12.63753 130.73538 11308 ft 412 kts 264°
2026-04-23 04:02 -12.64036 130.70614 11786 ft 415 kts 264°
2026-04-23 04:03 -12.64321 130.67666 12279 ft 417 kts 265°
2026-04-23 04:03 -12.64639 130.64703 12764 ft 420 kts 261°
2026-04-23 04:03 -12.65367 130.61792 13233 ft 424 kts 251°
2026-04-23 04:03 -12.66606 130.59039 13711 ft 428 kts 240°
2026-04-23 04:04 -12.68309 130.56533 14135 ft 430 kts 232°
2026-04-23 04:04 -12.70161 130.54116 14532 ft 433 kts 232°
2026-04-23 04:04 -12.72020 130.51681 14922 ft 435 kts 232°
2026-04-23 04:04 -12.73884 130.49232 15310 ft 437 kts 231°
2026-04-23 04:05 -12.75762 130.46766 15687 ft 439 kts 231°
2026-04-23 04:05 -12.77620 130.44323 16036 ft 442 kts 231°
2026-04-23 04:05 -12.79514 130.41829 16377 ft 444 kts 231°
2026-04-23 04:05 -12.81414 130.39329 16707 ft 446 kts 231°
2026-04-23 04:06 -12.83328 130.36812 17034 ft 449 kts 230°
2026-04-23 04:06 -12.85251 130.34281 17354 ft 451 kts 231°
2026-04-23 04:06 -12.87181 130.31736 17675 ft 453 kts 231°
2026-04-23 04:06 -12.89119 130.29175 17979 ft 455 kts 231°
2026-04-23 04:07 -12.91063 130.26606 18269 ft 457 kts 231°
2026-04-23 04:07 -12.93015 130.24030 18534 ft 459 kts 230°
2026-04-23 04:07 -12.94976 130.21445 18805 ft 460 kts 230°
2026-04-23 04:07 -12.96941 130.18854 19076 ft 462 kts 230°
2026-04-23 04:08 -12.98916 130.16250 19350 ft 463 kts 230°
2026-04-23 04:08 -13.00894 130.13642 19623 ft 464 kts 230°
2026-04-23 04:08 -13.02874 130.11027 19895 ft 465 kts 230°
2026-04-23 04:08 -13.04859 130.08406 20152 ft 466 kts 230°
2026-04-23 04:09 -13.06851 130.05778 20398 ft 467 kts 230°
2026-04-23 04:09 -13.08844 130.03144 20634 ft 468 kts 230°
2026-04-23 04:09 -13.10841 130.00501 20873 ft 469 kts 231°
2026-04-23 04:09 -13.12844 129.97852 21097 ft 470 kts 231°
2026-04-23 04:10 -13.14850 129.95201 21318 ft 470 kts 231°
2026-04-23 04:10 -13.16863 129.92545 21523 ft 471 kts 230°
2026-04-23 04:10 -13.18875 129.89889 21716 ft 472 kts 231°
2026-04-23 04:10 -13.20889 129.87226 21904 ft 473 kts 231°
2026-04-23 04:11 -13.22903 129.84559 22081 ft 473 kts 231°
2026-04-23 04:11 -13.24921 129.81880 22252 ft 474 kts 231°
2026-04-23 04:11 -13.26939 129.79202 22416 ft 475 kts 231°
2026-04-23 04:11 -13.28937 129.76553 22567 ft 476 kts 231°
2026-04-23 04:12 -13.30965 129.73866 22715 ft 476 kts 231°
2026-04-23 04:12 -13.32992 129.71179 22873 ft 477 kts 231°
2026-04-23 04:12 -13.35029 129.68478 23029 ft 477 kts 231°
2026-04-23 04:12 -13.37061 129.65782 23175 ft 478 kts 231°
2026-04-23 04:13 -13.39095 129.63079 23313 ft 478 kts 231°
2026-04-23 04:13 -13.41128 129.60376 23450 ft 479 kts 231°
2026-04-23 04:13 -13.43169 129.57663 23571 ft 480 kts 231°
2026-04-23 04:13 -13.45213 129.54948 23687 ft 481 kts 231°
2026-04-23 04:14 -13.47261 129.52232 23802 ft 481 kts 231°
2026-04-23 04:14 -13.49308 129.49512 23910 ft 482 kts 231°
2026-04-23 04:14 -13.51360 129.46777 24023 ft 483 kts 231°
2026-04-23 04:14 -13.53412 129.44043 24139 ft 484 kts 231°
2026-04-23 04:15 -13.55470 129.41301 24265 ft 484 kts 231°
2026-04-23 04:15 -13.57526 129.38566 24441 ft 483 kts 231°
2026-04-23 04:15 -13.61631 129.33098 24761 ft 483 kts 231°
2026-04-23 04:16 -13.63678 129.30367 24933 ft 482 kts 232°
2026-04-23 04:16 -13.65723 129.27638 25112 ft 482 kts 232°
2026-04-23 04:16 -13.67771 129.24906 25296 ft 482 kts 232°
2026-04-23 04:16 -13.69813 129.22182 25477 ft 481 kts 232°
2026-04-23 04:17 -13.71857 129.19457 25676 ft 481 kts 232°
2026-04-23 04:17 -13.73897 129.16739 25882 ft 480 kts 232°
2026-04-23 04:17 -13.75939 129.14018 26088 ft 479 kts 232°
2026-04-23 04:17 -13.77976 129.11304 26310 ft 479 kts 232°
2026-04-23 04:18 -13.80006 129.08590 26534 ft 478 kts 232°
2026-04-23 04:18 -13.82029 129.05882 26762 ft 477 kts 232°
2026-04-23 04:18 -13.84053 129.03176 26992 ft 477 kts 232°
2026-04-23 04:18 -13.86072 129.00474 27227 ft 476 kts 232°
2026-04-23 04:19 -13.88089 128.97774 27464 ft 475 kts 233°
2026-04-23 04:19 -13.90074 128.95113 27716 ft 474 kts 233°
2026-04-23 04:19 -13.92107 128.92390 27992 ft 474 kts 233°
2026-04-23 04:19 -13.94113 128.89704 28243 ft 473 kts 233°
2026-04-23 04:20 -13.96090 128.87056 28505 ft 472 kts 233°
2026-04-23 04:20 -13.97439 128.85250 28694 ft 471 kts 233°
2026-04-23 04:20 -14.00089 128.81707 29055 ft 470 kts 233°
2026-04-23 04:20 -14.02082 128.79041 29332 ft 469 kts 233°
2026-04-23 04:21 -14.03423 128.77244 29523 ft 468 kts 233°
2026-04-23 04:21 -14.06044 128.73723 29907 ft 467 kts 233°
2026-04-23 04:21 -14.07379 128.71925 30085 ft 467 kts 233°
2026-04-23 04:21 -14.09348 128.69276 30335 ft 466 kts 233°
2026-04-23 04:22 -14.11290 128.66666 30583 ft 465 kts 233°
2026-04-23 04:22 -14.13258 128.64025 30833 ft 464 kts 233°
2026-04-23 04:22 -14.15324 128.61478 31082 ft 464 kts 226°
2026-04-23 04:22 -14.17740 128.59275 31328 ft 464 kts 217°
2026-04-23 04:23 -14.20444 128.57448 31580 ft 465 kts 213°
2026-04-23 04:23 -14.23187 128.55688 31839 ft 464 kts 213°
2026-04-23 04:23 -14.25920 128.53929 32103 ft 463 kts 213°
2026-04-23 04:23 -14.28647 128.52164 32368 ft 462 kts 213°
2026-04-23 04:24 -14.31368 128.50394 32636 ft 462 kts 213°
2026-04-23 04:24 -14.34079 128.48627 32917 ft 461 kts 213°
2026-04-23 04:24 -14.36794 128.46861 33196 ft 460 kts 213°
2026-04-23 04:24 -14.39503 128.45104 33473 ft 460 kts 213°
2026-04-23 04:25 -14.42214 128.43349 33770 ft 459 kts 213°
2026-04-23 04:25 -14.44916 128.41600 34049 ft 459 kts 213°
2026-04-23 04:25 -14.47618 128.39847 34306 ft 458 kts 213°
2026-04-23 04:25 -14.50308 128.38102 34560 ft 457 kts 213°
2026-04-23 04:26 -14.53004 128.36351 34800 ft 457 kts 214°
2026-04-23 04:26 -14.55693 128.34605 35041 ft 456 kts 213°
2026-04-23 04:26 -14.58377 128.32860 35284 ft 456 kts 214°
2026-04-23 04:26 -14.61061 128.31117 35530 ft 455 kts 213°
2026-04-23 04:27 -14.63740 128.29375 35774 ft 455 kts 214°
2026-04-23 04:27 -14.66419 128.27633 35912 ft 455 kts 214°
2026-04-23 04:27 -14.69099 128.25889 35946 ft 456 kts 214°
2026-04-23 04:28 -14.77166 128.20634 35943 ft 457 kts 214°
2026-04-23 04:28 -14.82541 128.17128 35946 ft 457 kts 214°
2026-04-23 04:29 -14.87880 128.13639 35940 ft 457 kts 214°
2026-04-23 04:29 -14.93282 128.10105 35941 ft 456 kts 214°
2026-04-23 04:30 -14.98654 128.06605 35941 ft 456 kts 214°
2026-04-23 04:30 -15.04028 128.03110 35938 ft 456 kts 214°
2026-04-23 04:31 -15.09356 127.99630 35936 ft 456 kts 214°
2026-04-23 04:31 -15.14716 127.96119 35938 ft 456 kts 214°
2026-04-23 04:32 -15.20076 127.92608 35937 ft 456 kts 214°
2026-04-23 04:32 -15.25435 127.89098 35932 ft 455 kts 214°
2026-04-23 04:33 -15.30789 127.85600 35934 ft 455 kts 214°
2026-04-23 04:33 -15.36146 127.82090 35933 ft 455 kts 214°
2026-04-23 04:34 -15.41499 127.78576 35929 ft 455 kts 214°
2026-04-23 04:34 -15.46848 127.75063 35933 ft 455 kts 214°
2026-04-23 04:35 -15.52196 127.71552 35933 ft 455 kts 214°
2026-04-23 04:35 -15.57545 127.68037 35933 ft 455 kts 214°
2026-04-23 04:36 -15.62888 127.64523 35932 ft 455 kts 214°
2026-04-23 04:36 -15.68234 127.61001 35932 ft 455 kts 214°
2026-04-23 04:37 -15.73568 127.57490 35934 ft 455 kts 214°
2026-04-23 04:37 -15.78882 127.53995 35932 ft 455 kts 214°
2026-04-23 04:38 -15.84228 127.50472 35936 ft 454 kts 214°
2026-04-23 04:38 -15.89560 127.46953 35937 ft 454 kts 214°
2026-04-23 04:39 -15.94902 127.43428 35938 ft 454 kts 214°
2026-04-23 04:39 -16.00243 127.39900 35940 ft 454 kts 214°
2026-04-23 04:40 -16.05574 127.36374 35942 ft 454 kts 214°
2026-04-23 04:40 -16.10902 127.32843 35945 ft 454 kts 214°
2026-04-23 04:41 -16.16202 127.29338 35948 ft 454 kts 214°
2026-04-23 04:41 -16.21525 127.25817 35946 ft 453 kts 214°
2026-04-23 04:42 -16.26849 127.22288 35945 ft 453 kts 214°
2026-04-23 04:42 -16.32162 127.18771 35945 ft 453 kts 214°
2026-04-23 04:43 -16.37467 127.15248 35943 ft 452 kts 215°
2026-04-23 04:43 -16.42775 127.11722 35942 ft 452 kts 214°
2026-04-23 04:44 -16.48074 127.08204 35941 ft 452 kts 215°
2026-04-23 04:44 -16.53370 127.04688 35941 ft 451 kts 215°
2026-04-23 04:45 -16.58633 127.01186 35939 ft 451 kts 215°
2026-04-23 04:45 -16.63921 126.97668 35943 ft 451 kts 215°
2026-04-23 04:46 -16.69203 126.94147 35947 ft 451 kts 215°
2026-04-23 04:46 -16.74489 126.90616 35950 ft 450 kts 215°
2026-04-23 04:47 -16.79765 126.87095 35948 ft 450 kts 215°
2026-04-23 04:47 -16.85039 126.83582 35951 ft 450 kts 215°
2026-04-23 04:48 -16.90320 126.80063 35952 ft 449 kts 215°
2026-04-23 04:48 -16.95559 126.76568 35951 ft 449 kts 215°
2026-04-23 04:49 -17.00821 126.73043 35949 ft 448 kts 215°
2026-04-23 04:49 -17.06067 126.69524 35948 ft 448 kts 215°
2026-04-23 04:50 -17.11325 126.66011 35946 ft 448 kts 215°
2026-04-23 04:50 -17.16567 126.62497 35944 ft 448 kts 216°
2026-04-23 04:51 -17.21800 126.58975 35943 ft 447 kts 215°
2026-04-23 04:51 -17.27035 126.55466 35938 ft 447 kts 215°
2026-04-23 04:52 -17.32275 126.51952 35938 ft 447 kts 215°
2026-04-23 04:52 -17.37499 126.48440 35936 ft 446 kts 215°
2026-04-23 04:53 -17.42732 126.44926 35932 ft 446 kts 215°
2026-04-23 04:53 -17.47960 126.41407 35929 ft 446 kts 215°
2026-04-23 04:54 -17.53177 126.37890 35931 ft 446 kts 215°
2026-04-23 04:54 -17.58365 126.34387 35935 ft 446 kts 215°
2026-04-23 04:55 -17.63572 126.30880 35935 ft 446 kts 216°
2026-04-23 04:55 -17.68795 126.27362 35933 ft 446 kts 215°
2026-04-23 04:56 -17.74022 126.23832 35919 ft 450 kts 217°
2026-04-23 04:56 -17.79335 126.20235 35912 ft 457 kts 217°
2026-04-23 04:57 -17.84686 126.16617 35914 ft 458 kts 217°
2026-04-23 04:57 -17.90046 126.12995 35907 ft 458 kts 217°
2026-04-23 04:58 -17.95396 126.09362 35908 ft 458 kts 217°
2026-04-23 04:58 -18.00742 126.05739 35914 ft 458 kts 217°
2026-04-23 04:59 -18.06094 126.02119 35918 ft 457 kts 217°
2026-04-23 04:59 -18.11405 125.98517 35920 ft 457 kts 217°
2026-04-23 05:00 -18.16739 125.94897 35920 ft 456 kts 217°
2026-04-23 05:00 -18.22068 125.91272 35922 ft 456 kts 217°
2026-04-23 05:01 -18.27389 125.87645 35924 ft 455 kts 217°
2026-04-23 05:01 -18.32706 125.84025 35927 ft 455 kts 217°
2026-04-23 05:02 -18.38019 125.80407 35926 ft 455 kts 218°
2026-04-23 05:02 -18.43327 125.76787 35928 ft 454 kts 218°
2026-04-23 05:03 -18.48633 125.73176 35935 ft 454 kts 218°
2026-04-23 05:03 -18.53934 125.69560 35930 ft 454 kts 218°
2026-04-23 05:04 -18.59231 125.65939 35929 ft 453 kts 218°
2026-04-23 05:04 -18.64519 125.62325 35931 ft 453 kts 218°
2026-04-23 05:05 -18.69798 125.58706 35929 ft 452 kts 218°
2026-04-23 05:05 -18.75090 125.55115 35930 ft 453 kts 217°
2026-04-23 05:06 -18.80486 125.51678 35924 ft 453 kts 215°
2026-04-23 05:06 -18.85888 125.48324 35928 ft 453 kts 215°
2026-04-23 05:07 -18.91336 125.44896 35928 ft 453 kts 216°
2026-04-23 05:07 -18.96693 125.41480 35933 ft 452 kts 216°
2026-04-23 05:08 -19.02071 125.38044 35934 ft 452 kts 216°
2026-04-23 05:08 -19.07455 125.34609 35936 ft 452 kts 216°
2026-04-23 05:09 -19.11969 125.31732 35941 ft 452 kts 216°
2026-04-23 05:09 -19.17315 125.28327 35943 ft 451 kts 216°
2026-04-23 05:10 -19.22679 125.24896 35941 ft 451 kts 216°
2026-04-23 05:10 -19.28039 125.21462 35942 ft 450 kts 216°
2026-04-23 05:11 -19.33397 125.18037 35942 ft 449 kts 216°
2026-04-23 05:11 -19.38749 125.14619 35936 ft 449 kts 216°
2026-04-23 05:12 -19.44098 125.11195 35933 ft 449 kts 216°
2026-04-23 05:12 -19.49440 125.07764 35936 ft 449 kts 216°
2026-04-23 05:13 -19.54786 125.04336 35935 ft 449 kts 216°
2026-04-23 05:14 -19.62808 124.99187 35935 ft 449 kts 216°
2026-04-23 05:14 -19.68151 124.95757 35934 ft 449 kts 216°
2026-04-23 05:15 -19.73499 124.92317 35928 ft 449 kts 216°
2026-04-23 05:15 -19.78845 124.88873 35925 ft 450 kts 216°
2026-04-23 05:16 -19.84191 124.85420 35923 ft 450 kts 216°
2026-04-23 05:16 -19.89542 124.81969 35924 ft 450 kts 216°
2026-04-23 05:17 -19.94900 124.78519 35926 ft 450 kts 216°
2026-04-23 05:17 -20.00220 124.75084 35925 ft 450 kts 216°
2026-04-23 05:18 -20.05574 124.71611 35927 ft 450 kts 216°
2026-04-23 05:18 -20.10931 124.68145 35925 ft 451 kts 216°
2026-04-23 05:19 -20.16293 124.64676 35931 ft 451 kts 216°
2026-04-23 05:19 -20.21654 124.61208 35936 ft 450 kts 216°
2026-04-23 05:20 -20.27008 124.57744 35943 ft 450 kts 216°
2026-04-23 05:20 -20.32361 124.54276 35939 ft 450 kts 216°
2026-04-23 05:21 -20.37703 124.50798 35946 ft 450 kts 216°
2026-04-23 05:21 -20.43041 124.47320 35945 ft 449 kts 216°
2026-04-23 05:22 -20.48378 124.43842 35945 ft 449 kts 216°
2026-04-23 05:22 -20.53712 124.40369 35938 ft 450 kts 216°
2026-04-23 05:23 -20.59061 124.36894 35935 ft 450 kts 216°
2026-04-23 05:23 -20.64409 124.33412 35930 ft 450 kts 216°
2026-04-23 05:24 -20.69720 124.29944 35930 ft 451 kts 216°
2026-04-23 05:24 -20.75074 124.26441 35926 ft 451 kts 217°
2026-04-23 05:25 -20.80433 124.22928 35922 ft 452 kts 217°
2026-04-23 05:25 -20.85804 124.19410 35925 ft 453 kts 217°
2026-04-23 05:26 -20.91186 124.15890 35927 ft 453 kts 217°
2026-04-23 05:26 -20.96561 124.12369 35928 ft 453 kts 217°
2026-04-23 05:27 -21.01940 124.08837 35940 ft 453 kts 217°
2026-04-23 05:27 -21.07322 124.05310 35936 ft 454 kts 217°
2026-04-23 05:28 -21.12702 124.01773 35939 ft 453 kts 217°
2026-04-23 05:28 -21.18081 123.98234 35936 ft 454 kts 217°
2026-04-23 05:29 -21.23458 123.94692 35945 ft 453 kts 217°
2026-04-23 05:29 -21.28825 123.91151 35944 ft 453 kts 217°
2026-04-23 05:30 -21.34160 123.87631 35946 ft 453 kts 217°
2026-04-23 05:30 -21.39521 123.84093 35953 ft 453 kts 217°
2026-04-23 05:31 -21.44881 123.80549 35947 ft 452 kts 217°
2026-04-23 05:31 -21.50238 123.77007 35948 ft 452 kts 217°
2026-04-23 05:32 -21.55597 123.73470 35959 ft 452 kts 217°
2026-04-23 05:32 -21.60947 123.69928 35954 ft 452 kts 217°
2026-04-23 05:33 -21.66290 123.66372 35954 ft 452 kts 217°
2026-04-23 05:33 -21.71640 123.62816 35946 ft 452 kts 217°
2026-04-23 05:34 -21.76990 123.59265 35948 ft 452 kts 217°
2026-04-23 05:34 -21.82342 123.55709 35948 ft 452 kts 218°
2026-04-23 05:35 -21.87691 123.52144 35947 ft 452 kts 218°
2026-04-23 05:35 -21.93045 123.48585 35951 ft 452 kts 218°
2026-04-23 05:36 -21.98398 123.45022 35955 ft 452 kts 218°
2026-04-23 05:36 -22.03735 123.41449 35955 ft 452 kts 218°
2026-04-23 05:37 -22.09081 123.37874 35960 ft 451 kts 218°
2026-04-23 05:37 -22.14418 123.34315 35957 ft 451 kts 218°
2026-04-23 05:38 -22.19751 123.30753 35963 ft 451 kts 218°
2026-04-23 05:38 -22.25078 123.27190 35963 ft 450 kts 218°
2026-04-23 05:39 -22.30403 123.23619 35961 ft 450 kts 218°
2026-04-23 05:39 -22.35714 123.20053 35964 ft 449 kts 218°
2026-04-23 05:40 -22.41021 123.16489 35961 ft 449 kts 218°
2026-04-23 05:40 -22.46289 123.12943 35961 ft 449 kts 218°
2026-04-23 05:41 -22.51593 123.09374 35957 ft 449 kts 218°
2026-04-23 05:41 -22.56892 123.05808 35956 ft 449 kts 218°
2026-04-23 05:42 -22.62188 123.02244 35957 ft 448 kts 218°
2026-04-23 05:42 -22.67483 122.98663 35959 ft 448 kts 218°
2026-04-23 05:43 -22.72767 122.95085 35960 ft 448 kts 218°
2026-04-23 05:43 -22.78054 122.91518 35959 ft 448 kts 218°
2026-04-23 05:44 -22.83339 122.87945 35958 ft 447 kts 219°
2026-04-23 05:44 -22.88622 122.84368 35957 ft 447 kts 219°
2026-04-23 05:45 -22.93900 122.80793 35960 ft 447 kts 219°
2026-04-23 05:45 -22.99180 122.77216 35960 ft 447 kts 219°
2026-04-23 05:46 -23.04458 122.73635 35959 ft 447 kts 219°
2026-04-23 05:46 -23.09730 122.70053 35959 ft 447 kts 219°
2026-04-23 05:47 -23.14995 122.66464 35960 ft 447 kts 219°
2026-04-23 05:47 -23.20259 122.62869 35961 ft 447 kts 219°
2026-04-23 05:48 -23.25526 122.59285 35963 ft 447 kts 219°
2026-04-23 05:48 -23.30791 122.55698 35960 ft 446 kts 219°
2026-04-23 05:49 -23.36046 122.52104 35961 ft 446 kts 219°
2026-04-23 05:49 -23.41303 122.48512 35956 ft 446 kts 219°
2026-04-23 05:50 -23.46557 122.44913 35960 ft 446 kts 219°
2026-04-23 05:50 -23.51811 122.41312 35961 ft 446 kts 219°
2026-04-23 05:51 -23.57024 122.37745 35960 ft 446 kts 219°
2026-04-23 05:51 -23.62269 122.34146 35962 ft 445 kts 220°
2026-04-23 05:52 -23.67517 122.30546 35956 ft 445 kts 220°
2026-04-23 05:52 -23.72756 122.26944 35962 ft 445 kts 220°
2026-04-23 05:53 -23.77992 122.23341 35965 ft 445 kts 220°
2026-04-23 05:53 -23.83218 122.19734 35970 ft 444 kts 220°
2026-04-23 05:54 -23.88442 122.16131 35964 ft 444 kts 220°
2026-04-23 05:54 -23.93665 122.12532 35972 ft 443 kts 220°
2026-04-23 05:55 -23.98850 122.08962 35964 ft 443 kts 220°
2026-04-23 05:55 -24.04057 122.05365 35970 ft 443 kts 220°
2026-04-23 05:56 -24.09261 122.01756 35975 ft 442 kts 220°
2026-04-23 05:56 -24.13579 121.98760 35971 ft 442 kts 221°
2026-04-23 05:57 -24.18764 121.95157 35970 ft 441 kts 221°
2026-04-23 05:57 -24.23951 121.91556 35972 ft 441 kts 221°
2026-04-23 05:58 -24.29136 121.87961 35972 ft 441 kts 221°
2026-04-23 05:58 -24.34314 121.84361 35969 ft 440 kts 221°
2026-04-23 05:59 -24.39485 121.80763 35972 ft 440 kts 221°
2026-04-23 05:59 -24.44649 121.77164 35970 ft 439 kts 221°
2026-04-23 06:00 -24.49806 121.73559 35965 ft 439 kts 221°
2026-04-23 06:00 -24.54960 121.69968 35967 ft 439 kts 221°
2026-04-23 06:01 -24.60115 121.66372 35965 ft 438 kts 222°
2026-04-23 06:01 -24.65254 121.62773 35965 ft 438 kts 222°
2026-04-23 06:02 -24.70380 121.59176 35963 ft 437 kts 222°
2026-04-23 06:02 -24.75480 121.55598 35958 ft 437 kts 222°
2026-04-23 06:03 -24.80609 121.52011 35973 ft 437 kts 222°
2026-04-23 06:03 -24.85734 121.48428 35967 ft 436 kts 222°
2026-04-23 06:04 -24.90842 121.44828 35968 ft 436 kts 223°
2026-04-23 06:04 -24.95945 121.41228 35962 ft 435 kts 223°
2026-04-23 06:05 -25.01046 121.37636 35967 ft 435 kts 223°
2026-04-23 06:05 -25.06154 121.34045 35966 ft 435 kts 223°
2026-04-23 06:06 -25.11248 121.30455 35962 ft 434 kts 223°
2026-04-23 06:06 -25.16332 121.26858 35960 ft 434 kts 223°
2026-04-23 06:07 -25.21411 121.23265 35962 ft 434 kts 223°
2026-04-23 06:07 -25.26486 121.19665 35960 ft 433 kts 223°
2026-04-23 06:08 -25.31563 121.16067 35957 ft 433 kts 223°
2026-04-23 06:08 -25.36640 121.12476 35959 ft 433 kts 223°
2026-04-23 06:09 -25.41710 121.08880 35952 ft 433 kts 223°
2026-04-23 06:09 -25.46767 121.05275 35953 ft 432 kts 224°
2026-04-23 06:10 -25.51788 121.01696 35954 ft 432 kts 224°
2026-04-23 06:10 -25.56852 120.98093 35950 ft 432 kts 224°
2026-04-23 06:11 -25.61911 120.94494 35946 ft 432 kts 224°
2026-04-23 06:11 -25.66960 120.90888 35949 ft 432 kts 224°
2026-04-23 06:12 -25.72013 120.87276 35949 ft 432 kts 224°
2026-04-23 06:12 -25.79584 120.81861 35948 ft 431 kts 224°
2026-04-23 06:13 -25.84634 120.78243 35948 ft 432 kts 224°
2026-04-23 06:13 -25.89679 120.74636 35948 ft 431 kts 224°
2026-04-23 06:14 -25.94718 120.71018 35950 ft 431 kts 224°
2026-04-23 06:14 -25.99756 120.67395 35947 ft 431 kts 225°
2026-04-23 06:15 -26.04784 120.63769 35949 ft 431 kts 225°
2026-04-23 06:15 -26.09814 120.60149 35950 ft 431 kts 225°
2026-04-23 06:16 -26.14842 120.56526 35947 ft 430 kts 225°
2026-04-23 06:16 -26.19869 120.52899 35944 ft 430 kts 225°
2026-04-23 06:17 -26.24894 120.49266 35952 ft 430 kts 225°
2026-04-23 06:17 -26.29910 120.45639 35954 ft 430 kts 225°
2026-04-23 06:18 -26.34928 120.42015 35953 ft 430 kts 225°
2026-04-23 06:18 -26.39941 120.38381 35952 ft 429 kts 225°
2026-04-23 06:19 -26.44940 120.34745 35955 ft 429 kts 225°
2026-04-23 06:19 -26.49945 120.31119 35956 ft 429 kts 225°
2026-04-23 06:20 -26.54955 120.27492 35955 ft 429 kts 225°
2026-04-23 06:20 -26.59918 120.23878 35953 ft 428 kts 226°
2026-04-23 06:21 -26.64946 120.20283 35956 ft 432 kts 224°
2026-04-23 06:21 -26.70184 120.16928 35954 ft 435 kts 222°
2026-04-23 06:22 -26.75485 120.13647 35954 ft 435 kts 222°
2026-04-23 06:22 -26.80754 120.10317 35957 ft 434 kts 223°
2026-04-23 06:23 -26.85982 120.06949 35961 ft 433 kts 223°
2026-04-23 06:23 -26.91210 120.03573 35964 ft 433 kts 223°
2026-04-23 06:24 -26.96440 120.00209 35968 ft 434 kts 223°
2026-04-23 06:24 -27.01674 119.96838 35959 ft 433 kts 223°
2026-04-23 06:25 -27.06905 119.93467 35973 ft 433 kts 223°
2026-04-23 06:25 -27.12132 119.90100 35977 ft 433 kts 223°
2026-04-23 06:26 -27.17360 119.86721 35977 ft 433 kts 224°
2026-04-23 06:26 -27.22573 119.83340 35981 ft 433 kts 224°
2026-04-23 06:27 -27.27787 119.79958 35991 ft 433 kts 224°
2026-04-23 06:27 -27.32997 119.76584 35992 ft 432 kts 224°
2026-04-23 06:28 -27.38205 119.73202 35998 ft 432 kts 224°
2026-04-23 06:28 -27.43402 119.69821 35999 ft 431 kts 224°
2026-04-23 06:29 -27.48600 119.66441 36002 ft 431 kts 224°
2026-04-23 06:29 -27.53786 119.63057 36007 ft 431 kts 224°
2026-04-23 06:30 -27.58969 119.59677 36012 ft 430 kts 224°
2026-04-23 06:30 -27.64154 119.56298 36015 ft 430 kts 224°
2026-04-23 06:31 -27.69289 119.52938 36016 ft 429 kts 224°
2026-04-23 06:31 -27.74455 119.49562 36019 ft 429 kts 224°
2026-04-23 06:32 -27.79613 119.46193 36018 ft 428 kts 224°
2026-04-23 06:32 -27.84729 119.42833 36015 ft 428 kts 225°
2026-04-23 06:33 -27.89875 119.39453 36014 ft 427 kts 225°
2026-04-23 06:33 -27.94982 119.36099 36019 ft 427 kts 225°
2026-04-23 06:34 -28.00120 119.32716 36021 ft 427 kts 225°
2026-04-23 06:34 -28.05250 119.29335 36020 ft 427 kts 225°
2026-04-23 06:35 -28.10387 119.25952 36021 ft 427 kts 225°
2026-04-23 06:35 -28.15519 119.22570 36018 ft 426 kts 225°
2026-04-23 06:36 -28.20644 119.19180 36018 ft 426 kts 225°
2026-04-23 06:36 -28.25759 119.15787 36020 ft 426 kts 225°
2026-04-23 06:37 -28.30885 119.12394 36019 ft 426 kts 225°
2026-04-23 06:37 -28.36003 119.08996 36018 ft 426 kts 225°
2026-04-23 06:38 -28.41123 119.05601 36015 ft 426 kts 225°
2026-04-23 06:38 -28.46247 119.02200 36020 ft 426 kts 225°
2026-04-23 06:39 -28.51374 118.98796 36019 ft 427 kts 225°
2026-04-23 06:39 -28.56500 118.95383 36023 ft 427 kts 225°
2026-04-23 06:40 -28.61613 118.91960 36022 ft 427 kts 225°
2026-04-23 06:40 -28.66738 118.88528 36016 ft 427 kts 225°
2026-04-23 06:41 -28.71860 118.85105 36018 ft 427 kts 225°
2026-04-23 06:41 -28.76958 118.81703 36015 ft 427 kts 225°
2026-04-23 06:42 -28.82097 118.78270 36018 ft 428 kts 225°
2026-04-23 06:42 -28.87227 118.74830 36016 ft 428 kts 225°
2026-04-23 06:43 -28.92355 118.71377 36018 ft 428 kts 224°
2026-04-23 06:43 -28.97488 118.67928 36015 ft 429 kts 224°
2026-04-23 06:44 -29.02633 118.64470 36009 ft 429 kts 224°
2026-04-23 06:44 -29.06938 118.61570 36008 ft 429 kts 224°
2026-04-23 06:45 -29.12054 118.58116 36006 ft 430 kts 224°
2026-04-23 06:45 -29.17202 118.54628 36002 ft 428 kts 225°
2026-04-23 06:46 -29.19542 118.52629 36000 ft 412 kts 234°
2026-04-23 06:46 -29.21499 118.50305 35998 ft 399 kts 242°
2026-04-23 06:46 -29.24674 118.45198 35990 ft 394 kts 246°
2026-04-23 06:47 -29.27813 118.40042 35993 ft 395 kts 245°
2026-04-23 06:47 -29.30957 118.34870 35992 ft 396 kts 245°
2026-04-23 06:48 -29.34102 118.29688 35990 ft 397 kts 245°
2026-04-23 06:48 -29.37254 118.24485 35985 ft 398 kts 245°
2026-04-23 06:49 -29.40413 118.19269 35987 ft 399 kts 245°
2026-04-23 06:49 -29.43580 118.14033 35987 ft 400 kts 245°
2026-04-23 06:50 -29.46750 118.08781 35984 ft 400 kts 245°
2026-04-23 06:50 -29.49917 118.03513 35982 ft 401 kts 245°
2026-04-23 06:51 -29.53092 117.98237 35984 ft 402 kts 244°
2026-04-23 06:51 -29.56272 117.92953 35983 ft 403 kts 244°
2026-04-23 06:52 -29.59462 117.87658 35987 ft 403 kts 244°
2026-04-23 06:52 -29.62651 117.82345 35985 ft 404 kts 244°
2026-04-23 06:53 -29.65839 117.77021 35987 ft 404 kts 244°
2026-04-23 06:53 -29.69032 117.71679 35983 ft 405 kts 244°
2026-04-23 06:54 -29.72222 117.66334 35982 ft 405 kts 243°
2026-04-23 06:54 -29.75412 117.60979 35979 ft 406 kts 243°
2026-04-23 06:55 -29.78614 117.55614 35980 ft 407 kts 243°
2026-04-23 06:55 -29.81798 117.50273 35981 ft 407 kts 243°
2026-04-23 06:56 -29.85017 117.44856 35979 ft 408 kts 243°
2026-04-23 06:56 -29.88205 117.39493 35981 ft 408 kts 243°
2026-04-23 06:57 -29.91410 117.34090 35978 ft 408 kts 243°
2026-04-23 06:57 -29.94613 117.28674 35978 ft 409 kts 243°
2026-04-23 06:58 -29.97818 117.23247 35979 ft 409 kts 243°
2026-04-23 06:58 -30.01022 117.17814 35985 ft 410 kts 242°
2026-04-23 06:59 -30.04223 117.12375 35988 ft 410 kts 242°
2026-04-23 06:59 -30.07436 117.06925 35990 ft 411 kts 242°
2026-04-23 07:00 -30.10646 117.01473 35991 ft 411 kts 242°
2026-04-23 07:00 -30.13862 116.96002 36000 ft 411 kts 242°
2026-04-23 07:01 -30.17073 116.90522 36004 ft 412 kts 242°
2026-04-23 07:01 -30.20284 116.85038 36005 ft 412 kts 242°
2026-04-23 07:02 -30.23750 116.79717 36000 ft 422 kts 231°
2026-04-23 07:02 -30.28709 116.75847 35998 ft 443 kts 211°
2026-04-23 07:03 -30.34442 116.73145 36010 ft 445 kts 210°
2026-04-23 07:03 -30.40177 116.70419 36016 ft 446 kts 210°
2026-04-23 07:04 -30.45912 116.67674 36018 ft 446 kts 210°
2026-04-23 07:04 -30.51660 116.64939 36020 ft 447 kts 210°
2026-04-23 07:05 -30.57417 116.62260 35521 ft 446 kts 207°
2026-04-23 07:05 -30.60354 116.61051 34915 ft 449 kts 205°
2026-04-23 07:05 -30.63325 116.59919 34297 ft 450 kts 204°
2026-04-23 07:06 -30.66311 116.58822 33612 ft 450 kts 203°
2026-04-23 07:06 -30.69295 116.57729 32831 ft 450 kts 203°
2026-04-23 07:06 -30.72286 116.56610 32001 ft 452 kts 204°
2026-04-23 07:06 -30.75273 116.55466 31152 ft 454 kts 204°
2026-04-23 07:07 -30.78239 116.54311 30289 ft 456 kts 204°
2026-04-23 07:07 -30.81250 116.53127 29255 ft 458 kts 204°
2026-04-23 07:07 -30.84298 116.51923 27661 ft 469 kts 204°
2026-04-23 07:07 -30.87405 116.50696 26663 ft 470 kts 203°
2026-04-23 07:08 -30.90495 116.49487 25694 ft 468 kts 203°
2026-04-23 07:08 -30.93582 116.48283 24587 ft 469 kts 203°
2026-04-23 07:08 -30.96677 116.47073 23579 ft 468 kts 203°
2026-04-23 07:08 -30.99742 116.45876 22641 ft 462 kts 203°
2026-04-23 07:09 -31.02776 116.44693 21691 ft 456 kts 203°
2026-04-23 07:09 -31.05772 116.43525 20783 ft 451 kts 203°
2026-04-23 07:09 -31.08737 116.42367 19893 ft 447 kts 203°
2026-04-23 07:09 -31.11667 116.41219 19034 ft 443 kts 203°
2026-04-23 07:10 -31.14572 116.40077 18165 ft 438 kts 203°
2026-04-23 07:10 -31.17452 116.38945 17200 ft 434 kts 202°
2026-04-23 07:10 -31.20299 116.37827 16300 ft 429 kts 202°
2026-04-23 07:10 -31.23112 116.36721 15437 ft 424 kts 202°
2026-04-23 07:11 -31.25893 116.35623 14630 ft 420 kts 202°
2026-04-23 07:11 -31.28637 116.34539 14102 ft 410 kts 201°
2026-04-23 07:11 -31.31272 116.33501 13984 ft 389 kts 202°
2026-04-23 07:12 -31.36039 116.31631 13735 ft 334 kts 202°
2026-04-23 07:12 -31.38170 116.30793 13536 ft 314 kts 202°
2026-04-23 07:12 -31.40211 116.29987 13053 ft 306 kts 203°
2026-04-23 07:12 -31.42164 116.29080 12498 ft 298 kts 212°
2026-04-23 07:13 -31.43968 116.27918 11925 ft 294 kts 213°
2026-04-23 07:13 -31.45754 116.26769 11378 ft 291 kts 213°
2026-04-23 07:13 -31.47517 116.25640 10838 ft 287 kts 213°
2026-04-23 07:13 -31.49263 116.24523 10289 ft 285 kts 213°
2026-04-23 07:14 -31.50995 116.23416 9742 ft 282 kts 213°
2026-04-23 07:14 -31.52708 116.22324 9151 ft 280 kts 214°
2026-04-23 07:14 -31.54413 116.21238 8577 ft 277 kts 214°
2026-04-23 07:14 -31.56098 116.20163 8041 ft 274 kts 214°
2026-04-23 07:15 -31.57765 116.19093 7513 ft 272 kts 215°
2026-04-23 07:15 -31.59416 116.18035 7106 ft 268 kts 215°
2026-04-23 07:15 -31.59948 116.17695 7065 ft 268 kts 216°
2026-04-23 07:15 -31.60343 116.17443 7010 ft 268 kts 215°
2026-04-23 07:16 -31.61980 116.16390 6744 ft 269 kts 216°
2026-04-23 07:16 -31.63622 116.15336 6425 ft 268 kts 216°
2026-04-23 07:16 -31.65250 116.14291 6122 ft 266 kts 215°
2026-04-23 07:16 -31.66850 116.13262 5788 ft 265 kts 214°
2026-04-23 07:17 -31.68462 116.12228 5444 ft 263 kts 213°
2026-04-23 07:17 -31.70064 116.11200 5154 ft 261 kts 213°
2026-04-23 07:17 -31.71670 116.10168 4892 ft 257 kts 212°
2026-04-23 07:17 -31.73183 116.09197 4760 ft 245 kts 212°
2026-04-23 07:18 -31.74636 116.08257 4603 ft 230 kts 214°
2026-04-23 07:18 -31.75796 116.07085 4403 ft 211 kts 233°
2026-04-23 07:18 -31.76656 116.05751 4152 ft 200 kts 235°
2026-04-23 07:18 -31.77503 116.04439 3644 ft 203 kts 234°
2026-04-23 07:19 -31.78362 116.03116 3150 ft 204 kts 234°
2026-04-23 07:19 -31.79196 116.01833 3012 ft 189 kts 234°
2026-04-23 07:19 -31.80114 116.00753 2726 ft 191 kts 215°
2026-04-23 07:19 -31.81367 116.00184 2413 ft 195 kts 197°
2026-04-23 07:20 -31.82684 115.99805 2131 ft 194 kts 198°
2026-04-23 07:20 -31.83983 115.99429 1871 ft 188 kts 198°
2026-04-23 07:20 -31.85207 115.99075 1629 ft 176 kts 197°
2026-04-23 07:20 -31.86334 115.98748 1396 ft 155 kts 198°
2026-04-23 07:21 -31.87312 115.98464 1193 ft 137 kts 198°
2026-04-23 07:21 -31.88204 115.98204 1018 ft 129 kts 198°
2026-04-23 07:21 -31.89076 115.97949 853 ft 127 kts 199°
2026-04-23 07:21 -31.89927 115.97701 671 ft 128 kts 198°
2026-04-23 07:22 -31.90209 115.97619 635 ft 129 kts 200°